x

Western Caribbean - 195 Nm Wsw Of Negril Jamiaca (42057) Wave Buoy

2:50am - Mon 20th Oct 2014 All times are UTC.

  • Sig Wave height 2.6ft
  • Swell Direction
  • Peak Period 5s
  • Average Period 4s
  • Wind
    16mph, 20mph gusts
  • Sea Temp 84°f
  • 空気 Temp 84°f
  • Sea Pressure 1013mb

More Historic Weather Station data

Upgrade to MSW Pro to gain access to the past 30 days of data for over 8000 Wavebouys and Weather Stations around the globe.

Join Pro

Comparision Forecast

View Surf forecast
   
Mon 10/20 2:50am 2.5ft 5s 4s 16 20 mph 1013mb 84f 84f
1:50am 2.5ft 5s 4s 16 18 mph 1012.8mb 84f 84f
12:50am 3ft 5s 4s 16
mph
1011.8mb 84f 84f
Sun 10/19 11:50pm 2.5ft 5s 4s 16 18 mph 1011mb 84f 83f
10:50pm 2.5ft 5s 4s 16 18 mph 1010.8mb 85f 84f
9:50pm 2.5ft 6s 4s 16 18 mph 1010.8mb 85f 84f
8:50pm 2.5ft 5s 4s 13 16 mph 1010.7mb 85f 83f
7:50pm 2.5ft 6s 4s 13 18 mph 1011mb 85f 84f
6:50pm 2.5ft 5s 4s 16 18 mph 1011.4mb 85f 84f
5:50pm 2.5ft 6s 4s 16 18 mph 1012.1mb 85f 84f
4:50pm 2.5ft 6s 4s 13 16 mph 1013mb 84f 84f
3:50pm 2ft 6s 4s 11 13 mph 1013.7mb 84f 83f
2:50pm 2.5ft 4s 4s 7 9 mph 1014mb 84f 82f
1:50pm 2ft 5s 4s 13 16 mph 1013.4mb 84f 83f
12:50pm 2ft 6s 4s 11 13 mph 1012.9mb 84f 83f
11:50am 2ft 4s 4s 11 13 mph 1012.2mb 84f 83f
10:50am 2ft 6s 4s 11 13 mph 1011.5mb 84f 83f
9:50am 1.6ft 6s 4s 11 13 mph 1011.3mb 84f 82f
8:50am 1.6ft 5s 4s 13 16 mph 1011.1mb 84f 82f
7:50am 1.6ft 6s 4s 9 11 mph 1011.1mb 84f 82f
6:50am 1.6ft 6s 4s 2 4 mph 1011.6mb 84f 82f
5:50am 2ft 6s 4s 9 11 mph 1012.7mb 84f 82f
4:50am 1.6ft 7s 3s 13 16 mph 1013.2mb 84f 81f
3:50am 1.3ft 7s 4s 18 25 mph 1013.4mb 84f 83f
2:50am 1.3ft 6s 4s 11 16 mph 1013.3mb 85f 83f
1:50am 1.3ft 7s 4s 11 13 mph 1013.4mb 85f 83f
12:50am 1.3ft 7s 4s 9 11 mph 1012.7mb 85f 84f
Sat 10/18 11:50pm 1.3ft 6s 4s 9 11 mph 1012.1mb 85f 84f
10:50pm 1.3ft 6s 4s 9 11 mph 1011.6mb 85f 84f
9:50pm 1.3ft 5s 4s 9 11 mph 1010.9mb 85f 84f
8:50pm 1.3ft 6s 4s 9 11 mph 1010.5mb 86f 84f
7:50pm 1.3ft 5s 4s 9
mph
1010.9mb 86f 83f
6:50pm 1.3ft 8s 4s 9
mph
1011.8mb 86f 84f
5:50pm 1.3ft 8s 4s 7 9 mph 1012.5mb 86f 84f
4:50pm 1.3ft 7s 4s 7 9 mph 1013.3mb 85f 83f
3:50pm 1.3ft 5s 4s 7 9 mph 1013.7mb 85f 83f
2:50pm 1.3ft 6s 4s 7 9 mph 1014.2mb 84f 83f
1:50pm 1.3ft 5s 4s 9
mph
1013.9mb 84f 83f
12:50pm 1.3ft 6s 4s 7 9 mph 1013.3mb 84f 83f
11:50am 1.3ft 8s 4s 7 9 mph 1012.8mb 84f 83f
10:50am 1.3ft 6s 4s 7
mph
1012.2mb 84f 83f
9:50am 1.3ft 4s 4s 7 9 mph 1011.6mb 84f 83f
8:50am 1.3ft 5s 4s 9
mph
1011.4mb 84f 83f
7:50am 1.3ft 8s 4s 4 7 mph 1011.6mb 84f 83f
6:50am 1.6ft 3s 4s 2 4 mph 1012.1mb 83f 81f
5:50am 1.6ft 8s 4s 13 22 mph 1013mb 84f 79f
4:50am 1.6ft 8s 4s 13 18 mph 1013.2mb 84f 83f
3:50am 1.6ft 8s 4s 11 13 mph 1013.6mb 84f 83f
2:50am 1.6ft 8s 4s 11 13 mph 1013.6mb 84f 83f
1:50am 1.6ft 8s 4s 11 13 mph 1013mb 84f 84f
12:50am 1.6ft 8s 5s 11 13 mph 1012.4mb 85f 84f
Fri 10/17 11:50pm 1.6ft 8s 5s 11
mph
1011.7mb 85f 84f
10:50pm 1.6ft 8s 5s 11
mph
1011.3mb 85f 84f
9:50pm 1.3ft 8s 4s 9
mph
1011.5mb 85f 84f
8:50pm 1.3ft 8s 4s 7 9 mph 1011.2mb 85f 84f
7:50pm 1.6ft 8s 4s 7 9 mph 1011.6mb 85f 84f
6:50pm 1.6ft 8s 5s 7 9 mph 1012.1mb 85f 84f
5:50pm 1.6ft 8s 4s 7 9 mph 1012.9mb 85f 84f
4:50pm 1.6ft 8s 4s 9
mph
1013.8mb 85f 84f
3:50pm 1.6ft 8s 4s 7 9 mph 1014.7mb 85f 84f
2:50pm 1.6ft 8s 4s 9 11 mph 1014.7mb 84f 84f
1:50pm 1.6ft 9s 4s 9 11 mph 1014.4mb 84f 84f
12:50pm 1.6ft 9s 4s 11
mph
1013.6mb 84f 83f
11:50am 1.6ft 9s 4s 9 11 mph 1012.7mb 84f 83f
10:50am 1.6ft 9s 4s 11 13 mph 1012.2mb 84f 83f
9:50am 1.3ft 9s 4s 9 13 mph 1011.7mb 84f 83f
8:50am 1.3ft 9s 4s 9 11 mph 1011.7mb 84f 83f
7:50am 1.3ft 9s 5s 11 13 mph 1012mb 84f 83f
6:50am 1.3ft 9s 5s 9 11 mph 1012.5mb 84f 83f
5:50am 1.3ft 9s 5s 9 11 mph 1013.2mb 84f 83f
4:50am 1.3ft 10s 5s 9 11 mph 1013.9mb 84f 83f
3:50am 1.3ft 7s 5s 7 9 mph 1014.3mb 85f 83f
2:50am 1.3ft 6s 5s 7 9 mph 1014.3mb 85f 83f
1:50am 1.6ft 7s 5s 7
mph
1014mb 85f 83f
12:50am 1.6ft 6s 5s 7
mph
1013.3mb 85f 83f
Thu 10/16 11:50pm 1.3ft 7s 5s 7 9 mph 1012.2mb 85f 83f
10:50pm 1.3ft 6s 5s 4 7 mph 1012.1mb 85f 83f
9:50pm 1.6ft 6s 5s 4 7 mph 1011.8mb 86f 83f
8:50pm 1.6ft 6s 5s 7 9 mph 1011.7mb 86f 83f
7:50pm 1.6ft 6s 5s 7 9 mph 1011.9mb 86f 83f
6:50pm 1.6ft 6s 5s 7 9 mph 1012.6mb 85f 83f
5:50pm 1.6ft 6s 4s 7
mph
1013.3mb 85f 83f
4:50pm 1.6ft 7s 4s 9
mph
1014mb 85f 83f
3:50pm 1.6ft 7s 4s 9 11 mph 1014.7mb 84f 83f
2:50pm 1.6ft 6s 4s 11 13 mph 1014.6mb 84f 83f
1:50pm 1.6ft 7s 4s 9 11 mph 1014.6mb 84f 83f
12:50pm 1.6ft 6s 4s 9 11 mph 1014.2mb 84f 83f
11:50am 2ft 7s 4s 9 11 mph 1013.5mb 84f 83f
10:50am 2ft 7s 4s 9
mph
1013mb 84f 82f
9:50am 2ft 7s 4s 9 11 mph 1012.4mb 84f 83f
8:50am 2.5ft 7s 4s 11 13 mph 1012.2mb 84f 83f
7:50am 2.5ft 6s 4s 11
mph
1012.3mb 84f 83f
6:50am 2ft 6s 4s 9 11 mph 1012.9mb 84f 83f
5:50am 2.5ft 7s 4s 11 13 mph 1013.2mb 84f 83f